Regional Weather Roundup
Issued by NWS Tiyan, Guam

Home | Current Version | Previous Version | Text Only | Print | Product List | Glossary On
Versions: 1 2 3 4 5 6 7 8 9 10 11 12 13 14 15 16 17 18 19 20 21 22 23 24 25 26 27
000
ASGM40 PGUM 210712
RWRGUM
WEATHER ROUNDUP FOR THE MARIANAS
NATIONAL WEATHER SERVICE TIYAN GU
500 PM CHST MON AUG 21 2017

GUZ001>004-210800-
MARIANA ISLANDS-

CITY           SKY/WX    TMP DP  RH WIND       PRES   REMARKS
GUAM AIRPORT   SUNNY     81  77  89 CALM      29.79S
ANDERSEN AFB   PTSUNNY   81  75  83 SW5       29.84R
ROTA AIRPORT   PTSUNNY   81  72  74 S9        29.78S
TINIAN AP      PTSUNNY   84  75  74 S6        29.76S HX  92
SAIPAN AP      PTSUNNY   90  75  62 S6        29.78R HX 100

$$





USA.gov is the U.S. government's official web portal to all federal, state and local government web resources and services.